DEMOSAT/FALCON 1

Satellite information

Favourite Embed

Satellite Type and Status

PAYLOADIN ORBIT

Key statistics

Satellite DEMOSAT/FALCON 1 at a glance.

Uptime

6248

Days in orbit

Revolutions

≈ 15.0

Per day

Orbit

LEO

Low Earth Orbit

Inclination

9.3

Latest

Satellite identification and parameters

Extended collection of information and parameters for DEMOSAT/FALCON 1.

Object identification

Identified? True

Debris? False

Object name: DEMOSAT/FALCON 1

International designator: 2008-048A

Object number (NORAD): 33393

Object ID (CCSDS): 33393

Country: UNITED STATES OF AMERICA (US)

Current information (Y/N): Y

RCS size: LARGE

Orbital parameters

Period: 96.308 minutes

Inclination: 9.3465 deg

SMA: 6959.894 km

Apoapsis: 588.883 km

Periapsis: 574.634 km

RAAN: 16.9237 deg

Eccentricy: 0.0010237

Argument of periapsis: 15.7801 deg

Mean anomaly: 344.2717 deg

Mean motion: 14.95198515 rev/day

Mean motion (dot): 0.00003908 rev/day2

B* drag term: 0.00028365 1/REarth

Two-line elements (TLE)

Creation date: Nov. 4, 2025, 11:46 p.m.

Reference frame: TEME

Reference center: EARTH

Epoch: Nov. 4, 2025, 6:12 p.m. UTC

TLE line 0: 0 DEMOSAT/FALCON 1

TLE line 1: 1 33393U 08048A 25308.75856671 .00003908 00000-0 28365-3 0 9991

TLE line 2: 2 33393 9.3465 16.9237 0010237 15.7801 344.2717 14.95198515929256

Live tracking on map

Real-time ground track for satellite DEMOSAT/FALCON 1.

In-orbit conjunctions

A list of the most updated potential collisions computed for object DEMOSAT/FALCON 1.

Target Orbit TCA Probability of collision Miss distance Type
OBJECT D SSO 2025-04-23 05:40:59 0.0001164984 258.0 (m) UNKNOWN

Associated space launch

RatSat was an aluminum mass simulator on the fourth flight of the Falcon 1 rocket.

DEMOSAT/FALCON 1 was lifted into orbit during the mission ‘Falcon 1 | RatSat’, on board a Falcon 1 space rocket.

The launch took place on Sept. 28, 2008, 11:15 p.m. from Omelek Island.

For more information about the launch, click the button.

Launch to space Falcon 1 | RatSat
Falcon 1 | RatSat

Agency: N/A

Status: Launch Successful

Launch date: Sept. 28, 2008, 11:15 p.m. UTC

Rocket: Falcon 1

Launch pad: Omelek Island

Location: Ronald Reagan Ballistic Missile Defense Test Site, Kwajalein Atoll, Marshall Islands

...

Latest news about this satellite

There are no fresh news available about this satellite. Check back as we update our databases every day.


Newsletter sign-up

Weekly statistics, charts and insights to help you stay on top of the space industry.